Mc Allen Miller International Airport Mc Allen US
ICAO: KMFE
IATA: MFE
Category: Medium
Scheduled Services: Yes

Elevation: 107 ft
TransAlt. 18000 ft.

Airport Communications:
VALLEY APP/DEP:121
ASOS:128.5
ATIS:128.5
CTAF:118.5
GND:121.8
SAN ANGELO RDO:122.2
TWR:118.5
UNICOM:122.95

KMFE Zoom In..

If you have problems with the map follow the link
https://www.worldairports.se/pages/airport.php?
ICAO=KMFE

Runways:

(A) RW 13 length 7120 ft width 150 ft
ILS 111.70 / hdg 134

(B) RW 18 length 2638 ft width 60 ft
---- / hdg 182

(C) RW 31 length 7120 ft width 150 ft
ILS 111.70 / hdg 314

(D) RW 36 length 2638 ft width 60 ft
---- / hdg 2

Location; KMFE
Day. 16 / Time. 02.53 Zulu
* Altimeter: 30.27
* Temperature: 11° c. 51.8°f.
* Wind from: 120° Speed 05 kn.
Dewpoint: 04° c.
Visibility: 10 Statute Miles.
Clouds: Clear (automated report).

KMFE 160253Z 12005KT 10SM CLR 11/04 A3027 RMK AO2 SLP248 T01060044 53013


Wind From 120°
Speed 05 kn.

 
 
jpsmedia.com for Web Design worldairports.se 2018   terms of use